Theta_e
278 277 277 277 276 277 276 276 276 275 275 275 275 275 275 275 276 276 276 276 276 276 276 277 277 277 277 277 277 277 277 277 277 277 277 277 276 277 276 276 277 276
277 277 277 277 276 276 276 275 275 274 274 274 274 274 275 275 275 275 275 275 275 275 276 276 276 277 277 277 277 277 276 277 276 277 276 276 276 276 276 276 276 277
276 275 275 275 274 274 274 274 274 274 274 274 274 274 274 274 274 275 275 275 275 275 275 276 276 276 276 276 277 276 276 276 275 276 276 276 276 275 276 276 276 276
275 275 274 274 274 274 274 273 273 273 273 273 273 273 273 274 274 274 274 274 274 274 274 275 275 276 276 276 276 275 276 275 276 276 275 275 275 275 275 276 276 275
274 274 274 274 274 273 273 272 272 272 272 272 272 273 273 273 272 272 273 273 273 273 273 274 274 275 275 275 275 275 275 275 275 275 275 274 275 275 275 275 275 274
273 273 273 273 272 272 272 271 271 271 271 271 272 272 272 272 272 272 272 272 272 272 272 273 273 274 274 274 275 274 274 274 274 274 274 274 274 274 275 275 274 274
272 272 271 272 271 271 271 271 271 271 271 271 271 271 271 271 271 271 271 272 272 272 272 272 272 273 274 274 273 273 273 273 273 273 273 273 273 273 274 274 273 274
271 271 271 270 270 270 270 270 270 270 271 271 270 270 271 271 271 271 271 271 271 271 271 271 272 272 272 273 272 271 271 271 272 272 272 272 272 272 272 273 273 273
270 270 270 269 269 269 269 269 269 270 270 270 270 270 270 270 270 270 270 270 269 269 269 270 270 271 271 271 270 270 269 270 270 270 271 271 271 271 271 272 272 272
269 269 269 268 268 268 268 269 269 269 269 269 269 269 269 269 269 269 268 268 267 267 268 268 268 269 269 269 269 269 268 268 269 269 269 270 270 270 271 271 271 271
268 268 268 268 268 268 268 268 268 268 269 268 268 268 267 267 267 267 266 266 266 266 266 267 267 267 267 267 267 268 268 267 268 268 268 269 269 269 271 270 270 271
268 268 267 267 267 267 268 268 268 268 268 267 267 266 265 265 265 265 265 265 265 265 265 265 266 266 266 266 266 267 267 267 267 267 267 268 268 269 269 270 270 270
267 267 267 267 267 267 267 267 267 266 266 265 265 264 264 263 264 264 264 264 264 264 265 265 265 265 265 265 266 266 266 266 266 267 267 267 268 268 269 270 270 271
267 267 267 267 267 267 266 266 265 265 264 264 263 262 262 262 263 263 263 264 264 264 264 264 264 265 265 265 266 266 266 266 266 267 267 267 268 269 269 270 270 271
266 266 267 266 266 265 265 264 263 263 262 262 262 262 262 262 262 262 262 262 263 264 264 264 264 265 265 265 266 266 267 267 268 268 268 268 268 269 270 270 270 271
266 266 266 265 264 264 263 263 262 261 261 260 261 261 261 262 262 262 262 262 262 263 264 264 265 265 267 271 272 269 269 270 270 270 270 270 270 270 270 271 271 271
265 265 264 263 263 262 261 261 260 260 260 260 260 260 260 261 261 262 262 263 263 264 264 264 265 265 269 272 273 274 271 270 270 270 271 271 271 271 271 272 272 272
264 263 262 262 261 260 260 259 259 259 259 259 259 259 260 261 261 262 263 263 264 263 263 264 264 268 271 272 273 274 274 271 270 270 271 271 272 272 272 273 273 273
262 262 261 260 260 259 259 258 258 258 258 258 259 260 260 260 261 262 262 263 263 263 263 264 264 268 271 272 273 274 275 274 271 271 271 271 272 273 273 273 273 273
261 260 259 259 259 258 258 258 257 258 258 259 259 260 260 261 261 262 262 262 262 262 263 263 263 267 271 272 273 274 275 275 272 272 272 272 272 273 273 274 274 274
260 259 258 258 257 257 257 257 257 258 258 259 259 260 260 260 261 261 261 261 261 262 262 262 263 269 271 273 273 274 275 275 272 272 271 271 272 273 274 275 275 275
259 258 257 257 257 257 256 257 257 258 258 259 259 260 261 261 261 261 261 261 261 261 261 261 263 269 271 272 274 275 276 272 271 271 271 271 272 273 274 274 275 276
258 257 256 256 256 256 256 256 257 257 258 259 259 259 260 260 260 260 261 261 261 261 261 261 262 266 271 273 274 275 274 271 271 271 271 271 272 273 273 273 274 274
257 256 256 256 255 255 256 257 257 258 258 259 259 258 259 259 260 260 261 261 261 261 261 261 262 266 271 273 274 275 274 271 271 271 271 271 272 272 273 273 274 276
256 256 256 255 255 255 256 255 256 257 258 259 259 259 259 259 260 260 260 261 261 261 265 264 263 266 271 272 274 275 273 272 271 271 270 271 271 271 273 273 273 275
256 255 255 255 255 255 255 256 257 257 258 258 258 259 258 259 259 260 260 261 262 263 263 264 265 266 268 273 274 275 275 272 271 270 270 270 271 271 272 273 273 274
Wind_Speed
4 4 5 5 5 5 5 6 6 7 8 8 8 9 9 10 11 12 12 12 12 13 13 13 13 13 13 13 14 13 14 15 17 15 17 17 16 19 17 20 19 17
5 5 5 5 5 5 5 5 7 7 9 9 9 10 10 10 11 11 12 13 13 13 14 13 13 14 14 13 13 14 14 16 19 14 16 20 17 17 20 20 21 19
4 4 5 5 5 6 6 7 7 7 8 9 10 9 10 9 11 11 11 12 13 13 13 13 14 14 14 15 15 16 16 17 18 17 18 19 19 16 19 16 16 19
4 4 4 5 5 6 6 7 7 7 8 8 9 9 10 10 11 12 12 13 13 13 13 13 14 14 14 15 15 16 16 17 17 17 17 17 17 16 18 16 18 18
3 3 3 4 4 5 6 7 8 8 8 9 10 10 10 11 12 12 12 12 12 13 13 14 14 14 15 14 15 15 16 15 16 16 16 18 16 16 14 17 18 19
3 3 3 4 4 6 6 7 8 8 9 10 10 10 10 12 12 13 13 14 13 13 14 14 14 14 15 15 15 14 15 14 16 16 19 17 18 15 15 15 18 19
3 3 4 4 5 6 7 7 7 8 8 9 10 11 11 12 12 13 13 13 14 14 14 14 15 15 13 14 14 15 14 16 17 18 18 19 15 19 17 17 17 19
3 2 3 4 6 6 6 6 7 8 9 10 11 11 11 12 13 12 12 13 14 14 14 15 15 15 15 13 15 15 16 13 14 16 17 18 17 18 17 15 16 18
2 2 3 5 6 5 6 7 8 9 9 10 11 11 11 10 12 12 13 13 14 14 15 15 15 15 14 14 15 16 17 16 15 16 17 17 18 19 18 16 18 17
3 3 4 5 5 4 6 7 8 9 9 10 11 10 11 11 11 13 13 13 14 14 14 15 15 15 15 15 15 16 17 18 17 17 17 18 18 19 18 16 17 17
3 3 4 4 4 5 7 7 8 8 8 9 10 10 11 11 11 11 12 12 12 14 15 15 15 15 16 16 15 15 17 18 18 17 17 18 18 18 18 18 18 17
3 3 3 4 5 5 6 7 8 8 9 8 9 11 11 11 12 11 11 13 13 14 15 16 15 15 16 17 17 17 17 17 17 17 17 17 18 18 18 17 17 17
3 3 3 4 4 5 6 7 7 8 8 9 8 9 11 12 11 12 12 12 15 15 16 17 18 16 17 17 17 17 18 18 17 17 17 16 17 18 17 17 17 17
2 2 3 4 4 5 6 7 7 7 8 8 8 9 10 11 12 13 13 14 15 16 15 15 17 18 17 17 18 17 17 17 17 17 18 18 19 18 18 18 18 18
2 2 2 3 4 5 6 7 7 7 8 8 8 9 9 10 12 13 16 15 14 15 16 16 16 15 14 14 16 18 17 18 18 19 18 18 19 19 18 18 18 18
2 2 2 4 5 6 6 7 7 7 7 8 8 9 9 10 12 13 13 14 15 16 15 14 14 13 16 26 25 19 20 18 18 18 18 18 16 18 17 18 18 19
1 2 4 5 5 5 6 6 7 7 7 8 8 8 9 10 11 13 13 14 15 14 15 14 13 14 26 27 28 30 23 19 18 18 18 19 19 17 19 17 17 17
2 3 4 4 5 6 6 6 6 7 7 7 7 9 9 9 11 12 13 13 13 15 16 15 16 21 27 28 29 29 27 21 18 17 17 16 18 16 18 16 19 18
3 3 4 4 5 6 6 6 6 6 6 7 8 8 9 11 11 12 12 13 14 16 16 16 17 23 28 30 29 29 30 26 18 17 16 17 17 18 18 18 18 18
3 3 4 5 5 6 6 6 6 6 6 6 7 8 10 10 11 13 13 13 14 15 16 15 16 22 29 30 30 30 29 26 19 18 17 17 18 18 17 19 18 20
2 3 4 5 6 6 6 6 5 6 6 7 8 9 10 10 11 12 12 12 12 13 13 14 14 27 30 31 30 30 30 27 17 16 15 15 16 17 18 17 20 19
1 2 4 5 6 6 5 5 5 6 7 7 8 8 9 9 11 11 12 12 13 13 14 15 15 27 30 30 31 30 31 18 15 15 15 15 15 16 17 16 16 17
1 3 5 6 5 6 5 5 6 7 7 7 8 9 11 10 11 11 11 12 13 12 14 15 14 22 29 30 30 31 26 16 16 14 14 15 16 16 16 16 16 18
1 3 5 6 5 4 5 5 5 6 7 7 8 10 11 11 11 11 10 10 13 15 13 15 14 21 30 31 30 30 25 16 14 13 13 15 16 16 15 15 17 27
2 4 5 6 5 4 3 5 6 7 7 7 7 9 11 11 11 11 11 10 12 14 21 22 16 18 26 29 30 28 23 15 14 13 16 15 16 17 15 15 16 19
4 5 5 5 5 4 3 3 5 6 7 8 7 7 10 11 10 10 13 13 13 13 13 13 14 14 18 28 27 28 29 19 13 14 15 16 17 16 16 15 16 16
Wind_Direction
220 230 245 250 254 259 269 283 286 286 286 288 287 289 288 290 292 290 287 287 285 283 281 278 277 275 274 273 271 271 271 273 277 274 273 272 269 271 267 266 263 260
221 235 252 259 267 268 278 283 284 284 287 286 286 290 289 289 289 289 290 288 285 280 279 276 275 274 274 272 273 274 275 277 276 276 273 272 270 269 267 265 265 262
223 236 241 255 268 286 291 286 282 285 285 286 287 286 289 291 290 290 288 287 288 285 282 281 278 277 276 277 277 278 275 276 274 277 273 272 273 267 268 266 263 262
228 233 254 268 281 292 292 288 288 288 289 291 290 291 291 291 293 292 290 287 286 288 286 285 284 282 280 281 279 278 275 273 275 276 274 273 271 267 268 266 266 264
237 251 262 275 286 286 283 284 288 290 291 290 292 292 293 294 294 292 291 291 290 290 290 288 288 286 286 284 279 279 277 277 276 276 272 274 271 270 268 267 264 262
245 256 275 289 295 288 284 288 292 295 294 293 291 295 293 293 291 291 293 294 295 293 293 294 290 289 288 284 283 278 279 278 279 279 275 270 273 268 270 266 266 265
261 274 291 295 286 281 286 290 293 292 291 292 297 292 294 292 292 294 296 296 297 297 297 297 296 294 293 288 285 281 281 281 283 280 277 273 271 272 268 266 267 266
244 259 272 275 274 280 288 292 292 294 297 298 293 292 292 294 296 298 299 300 300 299 298 296 294 291 292 291 290 288 285 282 282 282 277 277 275 271 271 269 268 267
244 264 271 268 275 288 291 297 300 300 300 297 295 297 298 299 303 305 305 303 301 300 299 298 297 295 294 291 289 288 287 284 281 281 279 276 276 273 273 272 270 268
255 269 266 269 286 291 296 301 302 300 298 297 300 303 307 308 308 306 304 302 301 300 298 297 296 294 294 290 289 287 284 282 283 281 278 276 276 276 275 273 270 270
252 258 260 276 288 298 301 301 300 301 302 304 309 310 312 312 307 305 302 303 300 300 298 296 295 293 293 291 288 285 282 284 283 282 279 276 275 275 274 272 272 271
247 252 267 287 299 303 303 304 304 305 309 311 314 312 313 307 304 303 303 301 299 298 297 294 294 292 291 291 288 286 285 283 283 281 279 277 277 275 273 271 270 269
241 258 285 297 306 308 310 310 310 311 312 312 315 313 309 304 303 303 301 300 299 298 299 299 297 293 295 291 287 286 286 284 281 281 278 277 274 272 270 269 267 267
244 276 295 309 313 318 315 313 311 310 312 312 314 309 303 301 304 305 300 301 299 299 295 293 294 295 293 292 291 286 285 281 278 276 273 269 266 263 263 261 258 258
263 286 314 322 329 324 316 313 312 311 311 310 306 301 298 299 299 297 300 297 290 289 292 296 297 293 291 288 293 287 283 280 277 272 266 265 265 261 255 254 256 253
275 311 338 348 334 322 314 313 311 309 307 306 301 299 300 298 292 293 289 290 292 301 302 299 297 294 290 290 291 292 292 289 286 281 279 276 270 270 261 256 252 254
329 0 1 344 328 314 309 308 309 306 302 298 299 302 298 292 294 294 293 299 302 303 305 302 297 295 293 295 296 296 296 294 292 289 283 280 272 270 271 270 262 255
16 11 354 331 317 306 305 304 299 298 297 301 304 303 296 293 293 296 304 306 305 305 302 301 298 294 297 299 299 299 297 294 291 288 287 282 281 273 274 267 270 264
31 7 344 316 306 301 297 294 292 292 301 309 304 296 296 300 302 304 305 306 304 304 301 300 297 295 300 301 301 300 299 298 294 289 285 283 283 280 276 269 271 266
29 14 321 303 297 294 292 293 289 300 308 300 296 301 302 299 302 304 304 303 301 298 297 294 291 293 298 302 304 304 303 301 296 293 289 288 287 284 282 276 268 267
31 341 304 294 292 288 286 284 299 310 310 307 310 309 308 306 307 305 301 295 292 292 291 289 287 295 302 304 307 307 305 305 300 300 297 292 288 284 283 279 271 266
40 313 292 285 287 285 281 306 320 319 314 310 308 303 298 299 300 297 295 294 291 290 289 287 286 296 302 304 308 311 310 310 306 298 291 287 285 286 285 285 287 283
332 285 280 279 280 282 302 321 327 319 313 312 308 306 305 303 299 296 292 291 290 288 287 288 286 293 300 308 312 312 313 307 299 290 289 291 290 292 293 291 285 281
241 267 269 273 272 285 312 319 313 308 304 313 309 308 304 300 299 293 285 283 289 290 285 286 288 295 302 308 314 314 314 309 304 302 295 297 296 293 290 284 280 280
237 249 257 264 278 285 304 307 312 310 304 306 300 298 296 297 296 292 290 285 285 285 290 294 287 293 300 309 316 317 319 314 309 301 300 298 296 294 284 283 281 280
238 240 244 252 269 280 284 291 301 304 308 309 301 296 296 297 286 290 296 299 298 292 293 287 291 293 304 317 323 321 320 318 310 303 298 294 293 283 282 274 271 271